RH
3 3 3 3 3 3 4 4 4 4 4 4 4 4 4 5 6 7 7 7 6 6 5 5 4 4 4 4 4 4 3 4 4 4 4 5 5 5 5 5 5 5 5 6 6 6 7 6 5 5 5 6 6 6 5 5 4 4 5 6 6 6 5 6 6 7 8 8 8 10 10 8 7 5 5 5 4 4 3 3 3 2 2 2 2
2 3 2 3 3 3 3 3 3 3 3 3 3 3 3 4 4 4 5 5 5 5 4 4 4 3 3 3 3 3 3 3 3 3 4 4 4 5 5 5 5 5 5 6 5 5 6 6 6 5 5 6 6 6 5 5 5 5 6 6 6 6 6 6 6 6 7 7 8 10 9 8 8 6 5 5 4 4 4 3 3 2 2 3 2
2 2 2 2 2 2 2 2 2 2 2 2 2 2 2 2 3 3 3 3 3 3 4 3 3 3 3 3 3 3 3 3 3 3 3 3 4 4 4 4 4 5 5 5 5 5 5 6 6 5 5 6 6 6 6 5 5 5 6 7 7 7 7 6 6 6 7 8 9 9 8 8 8 6 5 5 4 4 4 3 3 2 2 2 2
2 2 2 2 2 2 2 2 2 2 2 2 2 2 2 2 2 2 2 3 3 3 3 3 3 3 2 2 3 2 3 3 3 3 3 3 3 3 4 4 4 4 5 5 5 5 5 5 5 5 5 5 6 6 6 5 5 5 6 7 8 8 7 6 6 6 7 8 9 8 8 7 7 7 5 4 4 4 3 3 3 3 2 2 2
2 2 2 2 2 2 2 2 2 2 2 2 2 2 2 2 2 2 2 2 2 2 3 3 3 2 2 2 2 2 2 2 2 3 3 3 3 3 3 3 3 4 4 5 5 4 5 4 5 5 5 5 6 6 6 5 5 6 6 8 9 8 7 6 6 7 7 8 8 7 7 7 7 6 5 4 5 4 4 4 3 3 2 2 2
2 3 3 2 2 2 2 2 2 2 2 2 2 2 2 2 2 2 2 2 2 2 2 2 3 2 2 2 2 2 2 2 2 2 2 3 2 3 3 3 3 3 3 4 4 4 5 4 5 6 5 5 5 5 6 5 5 7 7 8 9 8 6 6 6 7 8 8 8 7 6 6 6 5 5 4 4 4 4 4 3 3 2 2 2
3 3 3 3 3 3 3 2 2 2 2 2 2 2 2 2 2 2 2 2 2 2 2 2 2 2 2 2 2 2 2 2 2 2 2 3 2 2 3 3 3 3 3 4 4 4 5 4 5 6 5 5 5 5 5 6 6 7 8 8 9 7 6 6 7 7 8 8 7 7 6 6 5 5 5 4 4 4 4 4 4 3 2 2 2
3 3 3 3 3 3 3 3 3 3 3 2 3 3 2 2 2 2 2 2 2 2 2 2 2 3 3 3 2 2 2 2 2 2 2 2 2 2 2 3 3 3 3 3 4 4 4 5 5 5 5 5 5 5 5 5 7 8 8 8 8 7 6 6 7 8 8 8 8 7 6 6 5 4 5 5 4 4 4 4 4 3 2 2 2
3 3 3 3 3 3 3 3 3 3 3 3 3 3 3 2 2 2 2 2 2 2 2 2 2 3 2 3 3 2 3 3 2 2 2 2 2 2 2 2 2 3 3 3 4 4 4 5 5 5 5 5 4 5 5 6 8 9 9 8 6 6 7 7 8 8 8 8 8 7 7 6 4 4 4 5 4 4 5 4 4 3 2 2 2
3 3 3 3 3 3 3 3 3 3 3 3 2 2 2 2 2 2 2 2 2 2 2 2 2 3 2 2 3 2 2 3 2 2 2 2 2 2 2 2 2 3 3 4 4 4 4 4 5 4 4 4 4 4 5 6 9 9 8 7 6 6 7 7 8 8 8 8 8 7 7 5 4 4 4 4 4 4 5 4 3 3 2 2 2
3 3 3 3 3 3 3 3 3 3 3 3 2 2 2 2 2 2 2 2 2 2 2 3 2 2 2 2 2 3 2 2 2 2 2 2 2 2 2 2 2 3 4 4 4 4 4 4 5 4 4 4 4 5 6 7 9 8 7 7 6 7 7 7 8 8 8 8 8 8 7 5 4 4 3 4 4 4 4 3 3 3 2 2 2
4 4 4 3 3 3 3 3 3 3 3 3 3 2 2 2 2 2 2 2 2 2 2 3 2 2 3 2 2 2 2 2 2 2 2 2 2 2 2 2 3 3 3 4 4 4 4 4 4 4 3 4 4 5 7 8 7 7 6 7 7 7 7 8 8 8 8 8 8 7 5 4 5 4 3 4 4 4 3 3 3 3 2 2 2
4 4 4 4 4 3 3 4 3 3 3 3 3 3 2 3 2 2 3 2 2 2 2 2 2 2 2 2 2 2 2 2 3 2 2 3 2 2 2 2 3 3 3 4 4 4 4 4 4 4 3 4 5 6 7 7 6 6 6 6 7 7 7 8 8 9 9 9 8 7 5 5 5 3 4 4 4 4 3 2 3 2 2 2 2
4 4 4 4 4 4 4 4 3 3 3 3 3 3 3 3 3 2 3 2 2 2 2 2 2 2 2 2 2 2 2 2 2 2 2 2 2 2 2 2 3 3 3 3 4 3 4 4 3 3 4 5 6 6 7 6 6 6 6 6 7 8 8 8 8 8 8 8 8 6 5 5 4 4 4 4 4 4 3 3 3 2 2 2 1
4 4 4 4 4 4 3 4 3 3 4 3 3 3 3 3 3 2 2 3 2 2 2 2 2 2 2 2 1 2 2 2 2 2 2 2 2 2 2 2 3 3 3 3 3 3 4 4 3 4 4 5 6 6 6 6 6 6 6 6 7 8 8 8 8 8 8 7 6 6 5 5 4 5 5 4 4 4 3 4 3 3 3 2 2
4 3 3 3 3 3 3 3 3 3 3 3 3 3 3 3 3 3 2 3 2 2 2 2 2 2 2 2 2 2 2 2 2 2 2 2 2 2 3 3 3 3 3 3 3 3 4 4 4 4 5 5 6 6 6 6 6 6 6 7 8 8 8 8 8 8 8 6 5 5 5 5 5 5 5 4 4 4 4 4 3 3 3 2 2
3 3 3 3 3 3 3 3 3 3 3 3 3 3 3 3 3 3 2 2 2 2 2 2 2 2 2 2 2 2 2 2 2 2 2 2 2 2 3 3 3 3 3 3 4 3 4 4 4 5 5 5 5 6 6 6 6 6 6 7 8 8 8 8 8 8 7 6 5 5 5 5 5 5 5 4 4 5 5 4 3 3 3 2 2
3 3 3 3 2 3 3 3 3 3 2 3 2 2 2 2 2 2 2 2 2 2 2 2 2 2 2 2 2 2 2 2 2 2 2 2 2 3 3 3 3 3 3 4 4 4 4 4 5 5 5 5 5 5 6 6 6 7 8 9 9 8 7 8 8 7 6 6 6 5 5 6 6 5 5 4 5 5 5 5 4 3 2 2 2
3 3 3 3 3 3 3 2 2 2 2 2 2 2 2 2 2 2 2 2 2 2 2 2 2 2 2 2 2 2 2 2 2 2 2 2 3 3 3 3 3 3 4 4 4 4 4 5 5 5 5 5 5 5 6 6 7 8 9 9 9 8 7 8 7 6 6 5 5 5 6 6 6 5 5 5 5 5 5 4 4 3 2 2 2
3 3 3 3 3 3 2 2 2 2 2 2 2 2 2 2 2 2 2 2 2 2 2 2 2 2 2 2 2 2 2 2 2 2 2 3 3 3 3 3 3 3 3 3 4 4 4 5 5 5 5 5 5 5 6 7 8 9 10 9 8 8 8 7 6 5 5 5 5 5 6 5 5 5 6 6 6 5 5 4 4 3 3 2 2
3 3 3 3 3 3 2 2 2 2 2 2 2 2 2 2 2 2 2 2 2 2 2 2 2 2 2 2 2 2 2 2 2 2 3 3 3 3 3 3 3 3 3 3 4 4 5 5 5 5 5 5 5 6 7 8 9 10 10 9 8 8 7 6 6 6 5 5 5 5 5 5 5 6 6 6 5 5 4 4 4 3 3 2 3
3 3 3 3 2 2 2 2 2 2 2 2 2 2 2 2 2 2 2 2 2 2 2 2 2 2 2 2 2 2 2 2 2 3 3 3 3 3 3 3 3 3 3 3 4 5 5 5 5 5 5 5 6 7 8 9 10 10 9 9 8 8 7 6 6 6 5 5 5 5 5 5 5 6 5 5 5 4 4 4 3 3 3 2 3
3 3 2 2 3 2 2 2 2 2 2 2 2 2 2 2 2 2 2 2 2 2 2 2 2 2 2 2 2 2 2 2 3 3 3 3 3 3 3 3 3 3 3 4 4 5 5 5 5 5 5 6 7 8 9 10 10 9 9 9 8 8 7 6 6 6 5 6 6 5 5 5 6 6 5 4 4 4 4 4 4 3 3 2 3
3 3 3 2 3 2 2 2 2 2 2 2 2 2 2 2 2 2 2 2 2 2 2 2 2 2 2 2 2 2 3 2 3 3 3 3 3 3 3 3 3 4 4 4 4 5 5 5 5 5 6 7 8 9 10 10 9 9 9 9 8 7 7 6 6 6 6 6 5 5 6 7 6 5 4 4 4 4 4 4 4 4 3 2 3
3 3 3 3 2 2 2 2 2 2 2 2 2 2 2 2 2 2 2 2 2 2 2 2 2 2 2 2 2 2 3 3 3 3 3 3 3 3 4 3 3 4 4 4 5 5 5 5 5 6 7 8 9 9 9 9 9 9 9 8 7 7 7 6 6 6 6 6 6 6 7 8 7 6 5 4 4 4 4 4 4 4 3 2 3
3 3 3 3 2 2 2 2 2 2 2 2 2 2 2 2 2 2 2 2 2 2 2 2 2 2 2 2 3 3 3 3 3 3 3 3 4 4 4 4 4 4 4 5 5 5 5 6 6 7 8 9 9 9 8 8 9 9 9 8 7 7 7 6 6 6 6 6 7 8 9 8 7 6 5 5 4 4 4 4 5 4 4 3 3
3 3 3 3 3 2 2 2 2 2 2 2 2 2 2 2 2 2 2 2 2 2 2 2 2 2 2 2 3 3 3 3 3 3 3 3 4 4 4 4 4 4 5 5 5 5 6 6 7 8 8 9 8 8 8 9 9 8 8 7 7 7 7 6 7 7 6 7 9 10 9 8 7 6 5 5 5 4 4 4 5 4 3 3 3
3 3 3 3 3 2 2 2 2 2 2 2 2 2 2 2 2 2 2 2 2 2 2 2 2 2 2 3 3 3 3 3 3 3 4 3 4 4 4 4 4 5 5 6 6 6 7 7 8 8 8 8 8 8 9 9 8 8 7 7 7 7 6 7 7 7 8 10 12 12 9 8 7 6 5 5 5 5 5 4 5 4 3 3 3
3 3 3 3 3 2 2 2 2 2 2 2 2 2 2 2 2 2 2 2 2 2 2 2 2 2 2 3 3 3 3 3 3 4 4 3 4 4 4 5 5 5 6 6 6 7 7 8 8 8 8 8 8 8 9 8 7 7 7 7 7 7 7 7 7 8 11 13 14 12 10 8 7 6 5 5 4 4 5 4 5 4 3 3 2
3 3 3 3 3 2 2 2 2 2 2 2 2 2 2 2 2 2 2 2 2 2 2 2 2 3 3 3 3 3 3 3 3 4 3 4 4 4 4 5 5 6 7 7 7 8 8 8 8 8 8 8 8 8 8 7 7 7 7 7 7 7 7 8 9 11 15 16 14 12 10 9 7 6 6 5 4 5 5 4 5 4 4 3 2
3 3 3 3 3 2 2 2 2 2 2 2 2 2 2 2 2 2 2 2 2 2 2 2 2 3 3 3 3 3 3 3 3 4 4 4 4 5 5 6 6 7 7 7 8 8 8 8 8 8 8 8 8 8 7 7 7 7 7 7 7 8 8 9 12 15 17 16 13 12 10 9 7 6 6 5 5 5 5 5 5 4 4 3 2
3 3 3 3 2 2 2 2 2 2 2 2 2 2 2 2 2 2 2 2 2 2 2 2 3 2 3 3 3 3 3 4 4 4 4 5 5 5 6 6 7 7 8 8 7 8 8 8 8 8 8 8 7 7 7 7 7 7 7 8 8 9 10 13 16 18 17 15 13 12 10 8 7 6 6 5 5 4 5 5 5 4 4 3 2
3 3 3 3 3 2 2 2 2 2 2 2 2 2 2 2 2 2 2 2 3 2 2 2 3 2 3 3 3 3 3 4 4 4 5 5 5 6 6 7 7 7 7 7 7 8 8 8 8 7 7 7 7 7 7 7 7 7 8 9 9 11 15 18 20 19 16 14 13 11 9 8 7 6 6 5 5 5 4 5 5 5 4 3 2
3 3 3 3 3 2 2 2 2 2 2 2 2 2 2 2 2 2 3 3 3 3 3 3 3 3 3 3 3 3 3 3 4 4 5 5 5 6 6 6 6 7 7 7 8 8 8 8 7 7 7 7 7 7 7 7 8 8 9 11 13 16 20 21 20 18 15 14 12 10 9 7 6 6 6 5 5 6 5 5 5 5 4 4 3
2 3 3 3 2 2 2 2 2 2 2 2 2 2 2 2 3 3 3 3 3 3 3 3 3 3 3 3 3 3 3 3 4 4 4 5 5 5 5 6 6 7 7 8 8 7 7 7 7 7 7 7 7 7 8 8 9 10 12 15 18 21 23 21 19 17 15 13 11 10 8 7 6 6 6 6 6 7 6 5 5 5 4 4 3
3 3 3 3 2 2 2 2 2 2 3 2 2 3 3 2 3 3 3 3 3 3 3 3 3 3 3 3 3 3 3 3 4 4 4 5 5 5 6 6 7 7 7 7 7 7 7 7 7 7 7 7 8 8 9 10 12 14 17 21 23 24 22 20 18 16 14 12 11 9 7 7 7 6 6 6 6 7 6 6 5 5 5 4 3
3 3 3 3 3 2 2 3 2 2 3 3 3 3 3 3 3 3 3 3 3 3 3 3 3 3 4 4 4 4 4 4 5 5 5 5 6 6 6 6 6 7 7 7 7 7 7 7 7 7 7 8 9 11 12 14 17 20 23 25 25 23 21 19 17 15 13 11 9 8 7 7 7 7 7 7 7 7 7 6 5 5 5 4 3
3 3 3 3 3 2 2 3 3 3 3 3 3 3 3 3 3 3 3 3 3 3 3 3 4 4 4 4 4 5 5 5 5 5 6 6 6 6 6 6 6 7 6 7 7 7 7 7 7 8 10 11 13 15 17 20 23 26 27 26 24 21 20 18 16 14 12 10 9 8 8 8 8 8 8 7 7 7 7 6 6 5 5 4 3
3 4 4 3 3 3 3 3 3 3 3 3 3 3 3 3 3 3 3 3 4 4 4 4 4 4 4 4 5 5 5 5 5 5 5 5 5 5 6 6 6 6 7 7 7 7 8 8 9 12 14 16 18 21 23 25 27 28 26 24 22 20 19 17 15 13 11 9 8 8 8 8 8 8 8 8 7 7 6 6 6 6 5 4 4
3 4 4 3 3 3 3 3 3 3 3 3 4 4 4 4 4 4 4 4 4 4 4 4 4 4 4 4 4 4 4 5 5 5 5 5 5 6 6 6 6 7 7 7 8 9 10 12 14 17 19 21 23 25 27 28 28 26 24 23 22 20 18 16 14 12 10 9 8 8 8 9 9 9 8 8 7 7 7 6 6 6 5 5 4
3 4 4 3 3 3 3 3 3 3 3 4 4 4 4 4 4 4 4 4 4 4 4 5 4 4 4 4 4 5 5 5 5 5 5 5 5 6 6 6 7 8 8 9 11 13 15 18 20 22 24 25 27 29 29 28 26 25 24 23 21 19 17 15 13 11 10 9 8 8 8 9 9 9 9 8 7 7 7 6 6 6 6 5 4
3 4 4 4 3 3 3 3 3 3 3 4 4 4 4 4 4 4 4 4 4 4 5 5 5 5 5 5 5 5 5 5 5 5 5 5 6 6 7 7 8 10 11 14 16 19 21 23 25 26 28 30 30 30 28 26 25 25 24 23 21 18 16 14 12 11 10 9 9 9 9 9 9 9 9 8 8 7 6 6 6 6 5 5 5
3 4 4 4 3 3 3 3 3 3 4 4 4 4 4 4 4 4 4 5 5 5 5 5 5 5 5 5 5 5 5 5 5 5 5 6 7 7 8 10 11 14 16 19 22 24 26 28 30 31 32 32 31 29 27 26 25 25 24 22 19 17 15 14 12 11 10 9 9 9 9 9 9 9 9 8 7 7 6 6 6 5 5 5 5
3 4 4 4 4 3 3 4 4 4 4 4 4 4 4 4 4 4 5 5 5 5 5 5 5 5 5 5 5 5 5 5 6 7 7 8 9 10 12 14 16 19 22 24 27 29 31 33 34 34 33 31 29 28 27 26 26 24 22 20 19 17 15 14 12 11 10 10 9 9 9 9 9 9 8 8 7 7 6 6 6 5 5 5 5
4 4 5 4 4 3 4 4 4 4 5 5 4 4 4 4 4 5 5 5 5 5 5 5 5 5 6 6 6 6 7 7 8 9 10 11 13 15 17 20 23 26 28 31 33 34 36 37 37 35 33 30 29 28 28 27 25 23 21 20 18 17 15 14 12 11 10 9 9 8 8 8 9 9 8 8 7 7 6 6 6 5 5 5 5
4 4 5 5 4 4 4 4 4 5 5 5 5 5 4 4 5 5 5 5 5 5 5 6 6 6 6 7 7 8 9 10 11 12 14 17 19 23 26 29 31 33 34 36 38 39 40 39 37 34 33 31 30 30 28 26 24 22 21 19 18 17 15 14 12 10 9 9 8 8 8 8 8 8 8 7 7 7 6 6 6 5 5 5 4
4 4 5 5 5 4 4 5 5 5 5 5 5 5 5 5 5 5 5 5 6 6 6 7 7 7 8 8 9 10 11 13 15 18 21 25 29 33 37 38 38 38 40 42 43 43 42 40 37 36 35 34 33 31 29 26 24 22 21 19 18 17 15 13 12 10 9 9 8 8 8 8 8 8 8 8 7 7 7 6 6 5 5 5 4
4 4 5 6 6 5 5 5 5 5 6 6 6 6 6 6 6 6 6 6 6 7 7 8 8 9 10 10 11 13 15 18 21 25 28 32 36 39 42 43 44 44 45 46 46 45 43 41 39 38 37 36 34 32 29 27 25 23 21 19 18 16 14 12 11 10 9 9 8 8 8 8 8 8 8 7 7 7 7 6 6 6 5 5 5
4 5 5 6 6 6 5 5 6 6 6 6 7 7 7 7 7 6 6 7 7 8 8 9 10 11 12 13 16 18 21 24 28 31 33 36 39 43 46 48 48 47 47 47 46 45 44 43 41 40 39 37 35 32 29 27 25 22 21 19 17 15 13 12 10 10 10 9 9 9 9 9 9 8 8 8 7 7 6 6 6 6 6 5 5
4 5 6 6 7 6 6 6 6 6 7 7 7 7 7 7 7 7 7 7 8 9 9 11 12 14 16 19 22 25 29 33 36 38 40 43 45 48 49 49 48 47 47 47 46 46 45 44 43 42 39 37 34 31 29 27 24 22 20 18 15 14 12 11 10 10 10 10 10 10 10 9 9 8 8 8 7 6 6 6 5 5 5 5 5
4 5 6 7 7 6 6 6 7 7 7 7 7 7 8 8 8 8 8 8 9 10 12 14 16 18 22 26 30 34 39 43 46 48 49 50 50 50 49 48 48 48 47 47 47 46 46 45 43 40 38 35 33 31 28 26 24 21 19 16 14 13 12 11 11 11 11 11 11 11 10 9 9 8 8 7 7 6 6 5 5 4 5 5 4
Wind_Speed
84 82 80 80 80 79 79 79 80 81 82 82 83 82 83 85 89 92 93 94 95 95 94 93 92 92 92 92 93 94 93 92 90 89 90 92 94 94 93 92 91 91 91 91 91 90 90 89 86 82 81 82 84 85 83 81 77 70 65 63 62 62 61 60 59 61 64 65 64 65 69 70 68 69 70 71 75 78 78 76 73 69 67 66 65
79 78 76 76 77 77 77 76 76 77 78 79 81 81 81 82 85 87 89 90 91 92 93 92 91 91 90 89 90 91 90 89 88 88 88 89 90 91 90 90 90 90 90 90 90 89 89 88 86 82 79 79 81 81 81 79 75 68 63 62 62 62 61 60 59 58 59 61 63 66 69 69 69 69 69 69 72 74 76 75 72 69 67 64 63
73 73 73 74 74 75 75 74 74 75 76 77 79 79 79 79 80 82 84 85 86 88 90 91 90 89 88 87 87 88 88 87 87 87 87 87 87 87 86 87 88 88 87 87 88 87 86 86 85 82 78 76 77 78 78 77 73 67 62 61 61 62 62 60 58 55 55 58 63 66 68 69 69 69 68 67 68 70 72 73 72 70 67 63 62
70 70 70 70 71 72 72 72 73 73 74 75 77 77 77 76 76 78 80 81 82 83 84 87 87 86 85 84 84 84 84 84 84 85 86 85 84 83 83 84 85 85 84 84 85 85 84 83 82 80 77 74 73 75 76 74 70 65 61 60 61 61 62 60 56 54 52 55 61 66 67 67 68 69 67 64 64 67 69 70 70 70 67 62 61
68 68 67 67 68 69 69 70 70 71 72 73 74 74 74 74 74 74 76 77 78 77 78 81 83 84 83 81 80 79 79 80 80 81 82 83 82 81 80 79 80 80 80 80 81 81 81 80 79 77 76 72 71 72 72 71 68 64 61 60 60 61 61 58 55 53 52 55 60 64 66 66 67 68 65 61 61 65 68 69 69 69 66 62 60
65 65 66 66 66 67 67 68 69 69 70 71 72 73 73 73 72 73 73 74 74 74 74 75 79 81 80 79 78 77 75 74 75 77 78 79 79 78 77 76 75 74 74 75 76 77 77 76 75 74 73 71 68 68 68 68 66 64 62 60 60 60 59 57 55 53 52 55 59 61 63 65 65 66 63 59 59 63 67 68 69 69 65 62 60
61 62 63 63 64 65 66 66 67 68 68 69 70 70 70 71 72 72 72 72 71 72 72 73 75 77 78 77 77 76 74 72 71 72 73 75 75 74 73 72 71 70 69 70 72 73 73 72 71 70 70 68 66 65 65 65 64 64 62 60 60 59 57 56 53 52 53 55 58 60 61 63 63 62 61 59 59 62 64 65 68 69 65 62 60
59 60 60 61 62 62 63 64 65 66 67 67 67 67 67 68 69 70 70 70 69 69 70 71 73 74 75 76 76 76 74 72 71 70 70 71 71 69 68 68 68 67 65 65 66 68 69 68 67 67 67 65 64 63 62 62 62 63 62 60 58 57 56 54 52 52 54 54 57 59 60 61 61 58 58 59 58 60 63 63 65 68 65 63 61
54 55 56 57 59 60 61 61 62 63 64 64 65 65 66 66 67 68 68 68 67 67 68 69 70 72 73 74 75 75 74 73 72 70 69 69 68 65 64 64 64 62 60 60 62 65 66 65 64 64 64 63 61 60 59 59 60 62 61 58 56 55 54 53 52 53 53 54 56 58 59 60 59 55 56 58 57 58 62 63 63 65 64 63 62
49 50 51 54 56 57 58 59 61 61 62 63 63 64 65 65 65 65 66 66 65 65 66 67 68 69 71 72 72 73 72 72 71 70 69 68 66 64 61 60 59 56 56 57 60 63 63 62 62 62 61 60 58 57 57 57 59 59 58 56 55 54 52 51 51 52 52 53 56 58 59 59 57 55 55 55 55 57 60 61 62 62 62 61 61
46 47 49 51 53 53 54 56 58 60 61 62 62 63 63 64 64 64 63 63 63 63 63 64 65 67 69 69 69 69 70 71 70 68 68 67 65 62 60 57 53 51 53 56 59 61 60 60 61 61 59 57 56 56 56 56 57 56 55 54 53 51 50 50 50 50 51 53 55 58 59 56 55 55 53 52 54 56 58 59 59 59 59 59 59
43 45 47 49 50 50 51 53 55 57 58 59 60 61 61 62 63 63 61 61 60 59 60 60 62 65 67 67 66 66 67 68 69 67 66 65 63 60 58 54 49 49 52 55 57 59 59 59 59 58 56 54 54 55 55 54 54 53 53 53 51 49 48 48 48 49 51 52 55 59 58 53 53 55 52 49 52 55 56 58 56 55 57 57 56
42 43 45 47 47 48 49 51 52 54 54 55 56 56 57 58 60 60 60 59 57 57 57 58 59 62 64 64 64 63 63 64 66 66 64 63 61 58 55 51 48 49 51 53 55 57 57 57 57 55 53 52 53 53 53 52 52 51 51 51 49 47 46 46 46 48 49 51 55 58 56 52 52 54 51 49 51 54 55 56 54 53 55 55 52
40 41 43 44 46 46 47 48 50 51 52 53 54 54 55 56 57 57 57 57 56 56 56 56 57 59 60 60 59 58 59 60 62 62 61 60 58 56 53 49 48 49 50 52 54 55 54 54 54 52 50 50 50 51 51 50 50 50 50 48 46 45 44 44 46 48 48 50 54 55 54 52 51 51 51 51 51 53 54 54 53 53 55 54 50
39 40 40 41 44 44 45 46 49 50 51 52 53 54 54 54 55 56 56 55 54 55 55 54 55 57 57 56 53 52 53 55 56 56 56 56 55 54 51 49 48 49 50 50 51 51 50 50 50 49 48 48 49 49 49 48 48 48 47 45 43 43 43 44 46 47 48 51 51 51 52 52 50 49 50 51 51 52 53 52 52 53 55 54 50
38 38 37 39 41 41 41 43 47 48 49 51 52 53 53 53 53 54 54 53 53 53 52 52 53 54 54 52 49 47 48 49 49 49 50 50 50 50 49 48 48 48 49 49 48 47 46 46 47 47 47 47 47 47 46 46 46 46 44 42 41 42 43 44 45 46 49 50 48 48 50 50 49 49 50 51 51 51 52 52 52 52 54 54 50
36 36 35 36 37 37 37 39 42 46 47 49 50 50 50 50 50 51 51 50 50 50 49 49 50 49 49 47 45 43 43 42 42 43 44 44 45 45 46 47 47 46 46 45 45 44 43 43 44 45 46 46 45 44 44 44 44 43 41 40 40 42 43 43 44 46 48 47 47 48 48 47 47 48 49 50 50 50 51 53 52 52 53 51 47
34 34 33 33 33 34 34 35 38 42 44 45 46 46 45 45 46 47 47 47 46 46 45 46 45 44 43 42 39 37 36 35 36 38 39 40 40 40 41 43 44 43 42 42 41 40 40 41 43 44 45 44 42 41 41 41 41 40 38 38 41 43 43 43 44 46 45 44 46 47 46 45 47 48 49 49 49 49 50 52 53 53 53 49 43
33 33 32 31 30 31 32 33 35 38 40 41 41 40 41 42 42 43 43 42 41 41 41 41 40 38 37 35 32 31 31 30 30 33 35 35 34 35 37 39 40 39 39 38 38 38 38 40 42 44 43 41 39 38 38 38 38 37 36 39 42 42 42 43 45 45 43 43 44 44 43 44 45 47 48 48 48 49 49 51 52 53 53 48 41
32 31 30 29 29 30 31 31 32 34 35 36 36 36 38 39 40 40 39 37 37 37 37 36 34 32 31 29 26 26 27 27 27 29 30 30 30 31 34 36 37 36 36 35 35 36 37 38 41 42 40 37 36 35 34 35 35 34 36 40 42 41 42 44 44 43 43 43 42 41 41 42 43 45 46 47 48 49 49 50 51 52 51 47 41
30 30 29 28 27 29 30 30 31 31 31 32 32 34 35 36 37 36 35 34 33 33 33 31 29 27 26 24 23 23 24 24 25 26 26 27 28 30 32 34 35 34 34 33 33 34 35 38 40 39 35 33 32 31 31 32 32 34 38 40 41 41 42 42 42 42 43 42 40 40 41 41 42 43 44 45 46 47 47 48 49 50 49 44 40
28 29 29 28 27 28 29 29 29 29 28 29 30 31 33 33 34 33 32 31 31 30 29 28 26 23 22 22 22 21 21 22 23 24 24 25 27 29 31 32 32 32 32 31 32 33 35 36 36 34 31 30 29 29 29 30 32 35 38 38 40 41 41 40 41 42 42 40 39 40 40 41 41 42 43 43 44 44 44 46 47 48 47 40 36
27 27 28 28 27 27 27 28 28 27 27 28 28 29 30 30 31 31 30 29 29 28 27 26 23 21 21 20 19 19 20 21 21 22 22 23 25 27 28 28 29 30 30 30 31 32 33 33 32 30 28 27 27 27 28 30 34 36 36 37 39 40 40 40 40 40 40 39 39 39 40 41 41 41 41 41 41 41 41 43 45 46 45 39 34
26 26 27 27 27 26 26 26 26 26 27 27 27 27 28 28 29 29 28 27 27 26 24 23 21 19 19 18 18 19 20 20 20 20 21 22 24 25 25 26 27 27 27 28 29 30 30 29 27 25 25 25 26 27 29 32 34 34 35 37 39 39 39 39 39 39 38 38 38 38 39 40 41 41 41 40 40 39 39 41 43 45 44 39 33
26 26 26 27 26 26 25 25 25 26 27 27 27 26 26 26 27 26 25 24 23 22 21 19 18 17 17 18 19 20 20 20 20 20 20 21 22 22 23 23 24 24 25 25 26 27 26 24 22 23 24 25 26 28 31 32 32 33 35 37 37 37 38 38 38 37 37 37 37 38 39 39 40 40 40 40 40 39 37 38 41 43 42 38 32
27 26 26 26 26 25 24 24 24 25 26 26 25 24 24 24 24 23 22 21 20 18 17 16 15 15 17 18 19 19 20 20 20 20 20 20 21 21 21 21 21 21 22 22 23 23 21 20 21 22 23 25 27 30 31 30 31 33 35 36 35 36 36 36 36 36 36 36 37 38 38 39 39 39 39 39 40 39 37 37 39 41 41 37 32
27 27 26 26 25 24 23 23 23 24 25 24 23 23 22 22 22 20 19 18 17 15 14 13 13 14 15 16 17 18 19 19 19 19 20 20 20 19 18 18 18 18 19 20 20 20 19 19 20 21 24 27 29 29 29 30 32 34 34 33 34 34 34 34 34 35 35 36 37 38 38 38 38 38 38 38 38 38 38 37 38 39 39 36 32
27 27 26 26 24 23 22 22 22 23 23 22 21 21 20 20 20 18 17 16 14 13 13 13 13 14 14 15 16 17 18 19 19 19 18 18 18 17 17 17 17 17 17 18 19 18 17 18 20 23 26 27 27 27 29 31 32 32 32 32 33 33 33 33 33 34 35 36 37 37 38 37 37 37 37 37 37 37 37 36 37 38 38 35 31
27 26 26 25 24 22 20 20 21 21 21 20 19 18 18 18 17 16 15 14 13 12 13 14 15 15 16 16 16 16 18 19 18 17 17 16 16 16 16 16 15 15 16 18 18 17 18 19 22 24 26 26 26 27 29 30 30 30 31 31 31 31 31 32 33 33 34 35 36 37 37 36 35 36 37 37 36 35 35 35 36 37 37 34 30
26 26 25 24 23 21 19 19 19 20 19 17 16 16 16 16 15 14 13 12 11 10 12 13 15 16 17 17 17 17 18 18 18 17 15 15 15 15 15 16 15 15 17 18 18 18 19 21 23 24 24 25 26 27 28 29 29 29 30 30 30 30 31 31 32 33 34 35 36 36 35 35 34 35 36 36 35 34 34 34 34 34 35 33 29
26 25 24 23 22 21 19 17 17 17 17 15 14 14 14 14 13 12 11 10 10 10 12 14 16 17 18 18 18 18 18 18 17 16 15 15 15 16 16 16 16 17 18 19 19 19 21 22 22 23 24 25 26 26 27 27 28 28 28 29 29 29 30 31 32 32 33 34 35 35 34 34 34 34 35 36 35 33 32 32 33 33 33 32 28
25 25 23 22 21 20 18 17 16 15 14 13 13 13 13 12 11 10 9 9 10 11 12 15 17 18 18 18 18 18 18 17 17 16 16 16 16 17 17 17 18 18 20 20 20 20 20 21 22 23 24 24 25 25 26 26 27 27 27 28 28 29 30 31 31 32 33 34 33 33 33 33 33 33 34 34 34 33 31 30 31 32 31 31 28
24 24 22 20 19 18 17 16 15 14 13 12 12 12 12 11 10 9 8 8 9 10 12 14 16 17 18 19 19 19 19 18 18 17 17 18 18 19 19 19 19 20 20 19 19 19 20 21 22 23 23 23 24 24 25 25 26 26 26 27 28 29 30 30 31 32 33 32 32 32 33 33 33 33 33 33 33 33 30 29 29 30 30 29 27
23 22 20 19 18 16 15 14 14 13 12 12 11 11 11 10 9 9 8 8 8 9 10 12 14 16 17 18 19 19 20 19 19 19 19 20 20 20 20 20 19 18 17 17 18 19 20 21 21 21 22 22 23 23 24 24 25 25 26 27 28 28 29 31 31 32 31 31 31 31 31 32 32 32 32 32 32 32 31 29 28 29 29 28 26
23 21 19 18 16 15 14 13 12 11 11 11 10 10 10 9 9 8 8 8 8 8 9 10 11 12 14 16 17 18 18 18 18 19 19 20 20 19 18 17 16 15 15 17 18 19 19 19 20 20 21 21 21 22 22 23 24 24 25 26 27 28 30 31 31 31 30 30 30 30 31 31 31 31 31 30 30 31 31 29 28 29 29 27 25
23 20 18 16 15 14 13 12 11 10 10 10 10 9 8 8 8 8 7 7 7 7 6 7 7 8 9 10 12 13 13 14 15 16 16 17 16 16 15 15 14 15 16 17 18 18 18 18 19 19 19 19 20 21 22 22 23 24 25 26 28 29 30 30 30 29 29 29 29 30 30 30 30 30 30 29 29 29 30 29 28 28 28 26 24
22 20 17 15 14 13 11 11 11 10 10 10 10 9 8 8 7 6 6 5 5 5 5 5 5 5 5 6 7 8 9 10 11 12 13 13 14 14 14 14 14 15 15 16 16 16 16 17 17 17 18 18 19 20 21 22 23 24 25 27 28 29 29 29 28 28 28 28 28 28 28 28 28 29 28 29 29 29 29 29 28 27 26 25 24
20 18 16 15 13 12 10 10 10 9 9 10 10 9 9 8 7 5 5 4 4 4 4 4 3 3 4 5 6 7 8 9 10 11 12 13 13 13 13 13 13 13 14 14 14 14 14 15 15 15 16 17 18 19 21 22 23 24 26 27 28 27 27 27 27 28 27 27 27 27 27 27 27 27 28 28 28 28 28 28 27 26 25 24 23
19 17 15 14 13 11 10 10 9 9 9 10 10 10 9 8 7 5 4 3 3 4 4 4 3 3 3 5 6 7 8 9 10 11 12 12 11 11 11 11 11 12 12 12 12 12 13 13 13 14 15 17 18 20 21 22 24 25 26 26 26 26 26 26 27 27 26 26 26 26 26 26 26 27 27 27 28 28 28 28 27 25 24 23 22
19 17 15 13 12 11 9 9 9 9 9 9 10 10 10 9 7 5 4 3 3 4 4 4 3 3 3 4 5 5 6 7 8 9 9 9 10 10 10 10 10 9 9 10 10 10 11 11 13 14 16 17 19 20 22 23 24 25 25 25 25 25 26 26 26 26 25 25 25 25 25 25 26 26 27 27 28 28 28 27 26 24 23 23 22
18 16 14 13 12 10 9 9 10 9 9 10 10 10 10 9 7 6 5 5 4 4 4 4 3 3 2 2 3 3 4 5 6 7 7 8 8 8 8 7 7 7 7 8 8 9 10 12 14 15 16 18 19 21 22 23 24 24 24 24 25 25 25 24 25 25 25 25 25 24 25 25 25 26 27 27 27 28 28 27 26 24 23 22 22
17 15 14 13 11 10 9 9 10 10 10 10 11 11 10 9 7 6 6 5 5 5 5 5 4 3 3 2 2 3 3 4 5 5 6 6 6 5 5 5 5 5 6 7 8 10 12 13 14 16 17 19 20 22 22 23 23 23 24 24 24 24 24 23 23 24 24 24 24 25 25 25 25 26 27 27 27 28 27 27 26 24 23 22 21
16 15 13 12 11 10 9 10 10 11 11 11 11 10 10 9 7 6 6 6 5 5 5 5 5 4 4 3 3 3 3 3 3 3 3 3 3 3 3 3 4 5 6 8 9 11 12 14 15 17 18 19 21 21 22 22 23 23 24 24 24 23 23 23 23 23 24 24 24 25 25 25 26 26 26 27 27 27 27 27 26 25 23 22 21
16 14 12 11 10 9 9 10 10 11 11 11 10 10 9 8 7 6 6 6 6 6 6 6 5 5 4 4 3 3 3 2 2 1 1 1 1 2 3 4 5 7 8 9 10 12 13 15 16 17 19 20 20 20 21 22 23 23 24 23 23 23 22 23 23 23 24 24 25 25 25 25 26 26 26 27 27 27 27 26 26 25 24 23 21
15 13 12 10 9 9 9 9 10 10 11 11 10 10 9 8 8 7 7 7 7 7 6 6 6 5 5 5 4 4 3 3 3 2 1 1 2 3 4 5 7 8 8 10 11 12 14 15 16 18 18 19 20 20 21 22 23 24 24 23 23 22 22 23 23 24 24 25 25 25 26 26 26 26 26 27 27 27 27 26 26 25 25 24 22
14 13 11 10 9 9 8 9 9 10 10 10 10 11 10 9 9 8 7 7 7 7 7 7 6 6 6 6 5 5 4 3 2 2 2 2 3 4 5 6 7 8 9 10 12 13 14 15 16 18 19 19 20 21 23 23 24 24 24 23 23 23 23 23 24 24 25 25 25 25 26 26 26 26 27 27 27 27 27 27 26 26 25 25 24
13 12 11 9 9 9 9 9 9 9 10 10 11 11 11 10 9 8 7 7 7 7 7 7 7 7 6 5 4 3 3 2 2 3 3 4 4 4 5 7 8 9 10 11 12 13 14 16 17 18 19 21 22 23 24 25 25 25 24 24 23 24 24 24 24 24 25 25 25 25 26 26 26 27 27 27 27 27 27 27 27 26 26 25 25
12 11 10 9 9 9 9 9 9 9 10 10 11 11 11 9 8 7 6 6 6 7 7 7 7 6 5 4 3 3 3 4 4 4 4 4 4 5 6 8 9 10 11 11 13 14 15 17 18 20 21 23 24 26 26 27 26 26 25 25 25 25 24 24 24 24 24 24 25 25 26 26 27 27 27 27 28 28 27 27 27 27 27 26 26
12 11 9 9 9 8 8 8 9 9 9 9 9 9 8 7 6 6 5 5 5 6 6 6 6 6 5 4 4 4 4 3 3 4 4 4 5 6 7 8 9 10 11 13 14 16 17 19 21 22 24 26 27 28 28 28 27 26 26 26 25 25 24 24 24 24 24 24 24 25 26 26 27 28 28 28 29 28 28 28 28 27 27 27 27
12 11 10 9 8 8 8 8 8 8 8 8 7 7 6 6 5 5 5 5 5 6 7 7 6 6 5 5 4 4 3 3 3 4 4 5 6 7 8 9 10 12 13 15 16 18 20 21 23 25 27 28 28 29 28 28 28 27 26 26 25 24 24 24 23 23 24 24 24 25 26 27 28 28 29 30 30 30 30 29 29 28 28 28 28
12 11 10 9 8 7 8 8 8 8 8 7 6 6 6 6 5 5 4 5 6 7 8 8 7 6 5 4 4 3 2 2 3 4 5 6 7 8 9 11 12 13 15 17 19 20 22 24 26 27 29 29 29 29 29 28 28 27 26 25 25 24 24 24 23 24 24 24 25 26 27 28 29 29 30 31 31 31 31 30 30 29 29 28 28
Wind_Direction
275 274 273 272 271 269 268 267 267 266 266 266 265 264 263 262 262 263 263 264 265 266 266 266 265 264 264 264 265 265 265 265 264 263 262 262 263 263 263 263 263 263 263 263 263 264 265 266 266 264 263 265 267 269 272 274 275 276 275 274 272 270 269 268 267 268 270 272 275 277 277 277 277 277 278 280 281 281 281 280 280 279 277 276 275
274 274 272 271 271 271 270 269 268 266 266 265 264 263 262 262 262 262 262 263 264 265 266 266 265 265 265 264 265 265 265 266 265 264 263 262 262 263 263 263 263 263 263 263 263 264 264 265 266 265 264 264 266 268 270 272 274 275 275 274 272 271 270 268 267 267 269 272 275 276 276 277 277 278 278 279 281 282 282 281 281 279 278 276 275
273 273 273 272 272 272 271 270 268 267 266 265 265 264 263 261 261 261 262 263 263 264 265 265 265 265 265 265 264 265 266 266 266 266 265 263 263 262 262 262 262 263 263 263 264 264 264 265 266 266 265 264 265 267 270 272 273 274 274 273 272 272 270 269 268 267 268 271 274 275 276 278 279 279 279 280 281 281 281 281 281 280 278 276 275
275 274 273 273 273 273 272 271 270 269 267 266 266 265 264 262 261 260 261 261 262 262 264 266 266 266 266 265 264 265 265 265 265 265 265 264 264 263 263 262 262 263 263 263 263 263 264 265 265 266 266 265 265 267 269 271 273 273 273 272 272 272 270 269 268 267 268 270 272 273 275 277 280 280 281 282 283 282 281 281 281 280 278 277 275
278 277 276 275 274 273 272 271 270 269 269 268 268 267 267 265 263 262 262 262 262 262 262 265 267 267 268 267 267 266 265 265 264 263 263 264 264 264 263 263 263 263 262 262 262 263 264 264 265 265 266 265 265 266 268 271 272 272 271 271 271 271 270 269 268 268 268 268 270 272 274 277 280 281 281 283 284 284 283 282 281 279 278 278 276
279 279 278 277 275 274 273 272 272 271 271 271 270 270 270 269 268 267 266 265 265 265 264 265 266 268 269 269 269 268 267 265 264 263 263 263 263 263 264 264 264 263 262 261 262 262 263 264 264 264 265 266 266 266 268 269 270 270 269 270 270 270 270 269 269 269 269 269 271 273 275 277 279 281 282 284 284 284 283 283 282 279 279 278 277
278 276 275 275 274 274 274 274 273 273 272 271 271 270 271 271 270 269 268 268 267 267 267 266 266 267 268 269 269 269 269 267 266 264 263 263 263 264 264 264 264 263 262 262 262 262 262 263 263 263 265 266 267 267 267 267 268 268 268 269 270 270 270 269 269 270 271 272 273 274 276 277 278 281 284 284 283 283 282 282 281 281 280 280 278
276 275 275 275 274 273 272 272 272 271 271 271 270 270 269 269 269 269 268 268 268 267 267 266 266 266 267 268 268 269 269 269 268 267 265 264 265 264 264 264 264 263 263 263 262 262 262 262 262 263 264 266 267 267 266 266 267 268 268 268 270 270 270 270 271 272 273 275 276 276 277 278 278 281 284 284 282 282 280 279 280 280 281 281 279
273 273 274 274 273 273 273 272 271 270 270 269 268 268 267 267 267 267 267 267 267 266 265 265 264 265 265 265 266 267 268 268 269 269 268 267 267 266 265 264 264 264 263 263 261 260 260 261 262 263 264 266 266 266 266 266 266 267 268 269 270 270 270 272 272 273 275 277 277 278 279 279 279 281 282 282 282 281 279 278 279 279 280 280 279
272 272 272 271 271 272 272 272 272 272 271 270 269 268 267 267 267 267 267 267 267 266 266 265 264 264 263 263 263 265 266 267 268 268 268 268 268 268 266 265 264 264 263 261 260 259 260 261 261 262 264 265 266 265 265 266 266 267 268 270 270 270 271 273 274 275 277 278 279 280 280 280 281 281 280 280 280 278 277 277 277 278 279 279 279
276 275 273 272 272 272 272 272 271 271 271 270 270 269 269 270 270 269 269 269 269 268 268 267 266 265 264 263 263 263 264 265 266 266 266 267 268 267 267 266 264 263 261 259 258 259 260 260 260 262 263 264 264 264 265 266 266 268 269 270 270 270 272 274 275 277 278 279 281 281 279 280 282 280 278 279 279 276 275 275 275 277 278 278 279
280 279 277 276 275 275 274 274 272 271 270 269 269 269 269 269 270 271 271 271 271 271 271 270 268 267 266 266 265 263 263 264 266 266 265 266 267 267 267 266 264 261 259 258 257 258 258 258 259 262 263 263 263 263 264 266 267 268 269 269 270 271 273 274 276 277 279 281 282 280 280 282 282 280 279 279 278 277 276 275 275 276 277 277 278
284 283 282 281 280 279 278 277 276 275 274 273 271 271 270 270 270 272 273 274 275 275 274 273 271 269 267 267 266 265 264 263 264 265 265 265 266 267 267 266 263 261 258 257 256 257 257 258 259 261 261 261 262 263 264 265 266 268 268 269 271 273 273 275 276 277 280 282 282 281 283 284 283 281 281 281 279 279 278 277 277 279 279 278 277
285 283 283 283 282 281 280 279 278 277 277 276 276 275 274 273 274 275 275 276 277 277 276 274 272 270 268 267 265 264 263 261 261 263 264 265 266 267 267 265 262 260 259 257 256 256 257 258 259 260 260 260 261 262 263 264 266 267 268 270 272 274 275 276 276 278 281 281 281 283 285 284 283 283 283 282 280 280 280 280 281 282 282 280 278
283 283 283 282 281 280 280 279 278 277 276 276 276 276 275 275 276 276 276 277 277 276 276 274 272 270 268 267 266 263 260 259 260 261 262 263 264 265 266 264 262 260 259 258 257 257 257 257 258 259 259 259 259 261 262 264 266 267 269 271 273 274 275 275 277 280 281 280 281 284 284 283 283 283 283 282 281 280 280 281 282 283 283 282 280
286 285 284 282 280 280 279 278 277 276 275 274 274 275 275 275 275 275 276 276 276 275 274 272 270 269 268 268 266 262 259 258 260 260 260 261 262 263 264 263 262 261 260 259 258 258 257 257 257 257 257 256 257 259 262 264 266 267 270 273 274 274 274 275 278 280 280 280 283 283 282 283 284 283 282 281 281 281 282 282 282 282 282 281 281
289 288 286 283 282 281 278 276 275 275 274 274 274 274 274 273 273 273 274 274 273 273 272 270 269 269 269 267 264 261 258 258 259 260 260 259 260 261 262 261 261 261 260 259 259 258 257 255 255 254 254 254 256 258 261 264 266 269 272 274 274 274 274 276 278 279 280 282 283 283 282 284 284 283 282 281 282 282 284 284 284 283 281 281 280
292 291 289 287 285 284 281 278 275 275 275 275 275 276 275 273 272 272 272 272 271 270 270 269 268 268 267 265 262 260 258 258 258 259 259 258 258 259 260 259 260 260 259 258 257 256 254 253 252 252 252 253 255 258 261 264 267 270 273 274 273 273 275 277 278 278 280 282 281 281 283 284 284 283 282 282 282 283 283 284 284 284 282 281 280
297 295 293 292 290 287 284 281 279 278 278 279 279 279 277 276 274 272 271 270 270 268 267 267 266 265 264 263 259 257 256 256 256 257 258 259 259 258 258 258 258 258 257 255 254 252 250 249 249 250 251 253 255 258 261 265 268 271 273 272 272 273 276 278 278 278 280 280 279 281 283 283 283 283 282 283 283 284 284 284 284 283 282 282 281
299 298 297 296 294 291 287 285 282 282 281 282 281 280 278 276 274 273 271 269 267 265 264 263 262 260 259 258 254 252 253 254 254 254 256 258 257 255 254 254 254 254 253 252 250 248 246 246 247 249 251 253 256 259 262 266 269 270 271 271 272 275 277 277 278 280 280 279 280 281 282 282 282 282 282 282 282 283 283 282 282 282 282 283 283
301 300 299 298 297 294 291 288 286 284 283 282 280 278 277 275 273 272 270 268 265 263 261 259 257 255 253 251 248 247 249 251 251 251 251 252 252 251 251 251 251 250 250 248 247 245 244 245 247 249 252 254 257 260 263 265 267 267 268 270 274 276 276 277 279 281 280 280 282 283 282 282 282 281 281 281 280 281 281 280 280 281 281 283 284
303 302 301 301 299 296 293 290 289 287 286 283 280 278 276 274 272 271 269 267 264 262 259 255 252 250 249 246 242 242 243 245 247 247 247 247 249 249 249 249 249 248 246 245 244 243 243 245 248 250 253 255 258 260 262 263 264 265 267 271 274 275 276 279 280 280 281 283 284 284 283 283 282 281 281 280 280 281 281 281 281 281 282 283 284
306 305 304 304 302 298 295 293 292 292 290 286 281 278 276 274 272 270 268 266 263 260 257 254 249 246 243 240 237 237 238 239 241 243 244 245 247 248 248 248 246 245 243 242 242 242 244 246 249 252 254 256 258 259 259 260 262 264 268 272 274 275 278 279 280 281 282 284 284 284 285 284 283 282 281 281 281 282 282 283 283 283 284 286 285
311 310 309 307 304 301 298 296 296 295 291 286 281 278 275 274 272 270 268 266 263 260 257 253 248 242 239 235 231 231 233 234 235 238 240 242 244 245 245 244 243 242 241 240 241 242 245 247 250 252 255 256 256 256 256 258 261 266 270 272 273 276 278 279 280 282 283 284 285 286 286 285 284 284 283 283 283 283 283 283 283 284 285 287 286
315 314 313 311 308 304 302 302 301 297 291 285 280 278 276 274 272 270 269 267 264 261 257 254 248 240 234 228 225 225 227 228 229 231 233 237 239 240 240 240 240 239 238 238 239 242 244 246 248 251 252 253 253 253 255 258 263 267 269 271 273 276 278 279 281 283 285 285 287 287 286 286 285 285 285 285 285 284 284 284 284 285 287 287 286
318 317 316 314 311 310 308 306 303 297 291 285 281 278 276 274 272 270 269 267 263 259 256 252 246 237 229 224 222 223 223 224 225 226 228 232 235 236 236 235 235 235 235 235 237 239 240 242 244 247 248 249 250 253 257 262 266 267 269 272 275 277 278 280 283 285 286 287 288 288 287 286 285 285 285 286 286 287 286 285 285 286 287 288 288
321 320 319 317 316 315 312 308 303 296 290 285 282 280 278 276 273 270 267 265 261 255 250 245 240 233 226 223 222 222 222 222 222 223 224 227 229 228 228 228 228 228 230 231 233 235 237 239 241 243 245 247 251 256 261 264 266 268 270 274 276 277 280 282 284 286 287 288 288 287 286 285 285 285 285 286 287 288 288 287 286 286 287 288 289
323 322 321 320 319 318 314 308 302 296 290 286 284 283 281 279 276 272 268 263 257 248 239 233 227 223 219 218 220 221 222 222 221 221 221 222 222 219 219 220 220 222 226 229 231 232 234 236 239 242 245 250 255 260 263 264 266 270 273 275 276 279 282 284 285 287 288 288 288 287 286 285 286 286 286 286 286 287 288 288 288 288 288 288 288
325 324 323 321 320 319 315 309 303 296 291 288 287 286 284 282 279 277 273 269 263 253 241 230 221 215 212 212 214 217 220 221 219 217 216 216 213 210 211 212 212 215 223 227 229 230 232 235 240 244 249 254 258 260 263 266 269 272 274 276 278 281 283 284 286 287 288 288 287 286 285 286 286 287 287 287 287 287 287 288 287 288 288 288 287
327 326 323 321 320 319 316 311 304 297 293 291 292 292 289 285 283 282 279 276 270 258 243 230 219 213 211 211 211 214 217 218 215 212 208 206 203 201 203 206 205 210 220 226 227 229 233 238 243 249 253 256 259 262 265 269 271 273 275 278 281 283 284 285 287 288 288 287 286 286 286 287 287 287 287 287 287 287 288 287 287 287 288 288 287
328 326 324 323 322 320 317 312 305 300 298 298 298 298 296 292 290 287 284 279 269 252 237 227 219 214 212 211 210 212 213 214 211 205 198 195 194 195 199 202 204 209 219 226 229 232 237 243 248 252 255 257 261 265 268 270 272 275 278 281 282 284 285 286 288 288 288 287 286 287 287 287 287 287 287 287 287 287 287 287 287 287 287 287 286
329 327 325 324 322 319 316 314 309 305 305 307 307 307 303 300 300 299 294 286 275 261 246 233 224 218 214 212 210 209 209 208 205 198 193 192 194 197 200 204 207 213 221 228 232 237 243 247 250 253 257 261 264 267 269 271 275 278 280 282 283 285 286 288 289 288 287 287 287 287 288 287 287 286 285 286 287 287 287 287 288 288 287 286 284
330 327 326 325 322 319 317 315 313 313 315 316 317 316 313 311 312 312 307 298 286 274 261 247 235 227 221 215 211 208 206 204 201 197 195 197 200 202 205 209 214 220 226 232 238 243 246 249 252 256 260 263 266 268 271 275 277 279 281 282 284 286 288 289 289 288 287 287 287 288 287 287 286 285 285 286 287 287 288 287 287 287 287 285 283
331 329 327 326 323 320 319 319 318 321 324 325 325 324 321 319 319 317 316 310 297 284 273 259 247 238 230 223 216 212 209 207 204 201 201 204 207 209 212 217 222 227 233 238 243 246 248 252 256 259 262 265 267 271 275 277 279 280 282 284 286 288 289 289 288 287 287 287 287 287 286 286 285 285 286 287 288 289 290 289 288 287 286 284 281
333 331 329 328 324 322 323 324 325 327 331 333 332 329 325 323 320 317 318 318 312 300 287 273 261 251 242 233 226 221 217 213 210 209 210 213 217 220 223 226 229 233 238 241 245 249 253 257 259 261 264 267 271 275 277 278 280 282 284 285 287 289 289 288 288 288 288 288 287 286 285 284 284 284 285 286 288 289 290 290 289 287 285 283 280
334 333 332 331 328 325 327 330 331 334 339 341 340 335 328 323 320 319 323 326 322 312 298 282 269 261 253 245 238 233 229 224 222 221 223 225 227 228 229 229 231 234 239 244 248 252 256 259 262 265 269 272 275 277 278 280 281 283 285 287 288 289 289 289 289 289 289 287 286 285 284 283 284 284 285 286 287 288 289 289 287 286 284 283 279
335 334 334 334 331 329 333 337 337 339 346 349 348 342 334 328 327 328 331 332 325 315 304 289 272 258 248 242 237 235 234 232 230 230 229 228 228 227 227 230 234 238 243 247 251 254 258 262 266 270 273 275 276 277 278 280 282 285 287 288 289 289 290 290 290 289 288 287 286 285 284 283 284 285 286 287 288 289 289 288 287 285 283 281 278
336 335 336 337 335 335 341 346 344 347 355 358 357 352 344 338 337 336 335 335 330 324 320 312 293 263 237 227 223 222 223 223 222 222 222 223 225 228 231 235 239 242 246 249 252 258 263 266 270 273 275 275 276 277 279 282 284 286 288 289 290 291 292 292 291 289 288 287 285 284 284 284 284 285 286 288 289 290 289 289 288 285 283 281 277
338 338 338 340 340 340 349 354 352 356 5 7 5 1 352 344 341 338 334 338 345 345 339 328 309 278 246 232 227 226 225 224 223 222 222 223 226 229 232 236 240 243 248 253 258 263 267 269 271 272 273 274 276 278 281 284 286 287 289 291 293 294 293 291 290 288 287 286 285 285 284 284 284 285 286 287 288 289 289 288 287 286 283 281 277
339 340 342 345 344 346 355 1 0 6 15 16 14 9 0 352 350 354 359 7 14 13 6 350 327 299 268 251 240 236 236 237 235 234 231 229 228 229 231 236 242 248 255 260 264 266 267 268 269 270 271 275 278 281 283 286 288 290 293 295 296 294 292 291 289 289 288 287 287 286 286 285 285 286 286 287 288 289 289 289 287 285 283 281 277
340 342 345 348 348 350 360 7 8 11 18 23 22 17 10 5 8 17 28 38 41 39 35 23 6 349 321 290 265 250 244 242 241 241 240 237 237 238 239 244 252 258 262 265 265 265 265 265 267 270 274 278 281 284 287 289 292 295 297 297 296 294 292 290 290 289 289 289 289 289 287 286 286 286 286 287 288 288 289 289 288 285 283 280 277
342 344 347 350 351 354 2 11 13 15 19 23 23 20 14 13 19 28 38 48 53 52 48 43 32 23 8 337 304 276 260 250 246 245 245 246 248 252 255 260 263 263 264 263 261 261 263 267 271 275 279 283 285 288 291 294 297 299 300 298 296 294 293 292 291 291 292 291 291 289 288 286 286 285 286 286 287 288 289 289 288 286 283 280 277
343 346 349 352 353 356 5 14 19 20 21 21 21 19 17 17 23 34 44 49 49 47 44 39 31 23 12 351 327 307 288 277 266 261 259 263 265 268 265 262 258 254 253 256 259 263 268 273 278 281 284 287 290 293 296 299 302 302 301 299 297 295 294 294 294 294 295 293 292 290 288 286 285 285 285 285 286 287 288 289 288 287 285 280 277
344 347 351 355 357 360 8 18 23 24 23 21 18 18 20 21 26 35 43 46 46 42 41 37 31 24 15 2 348 334 324 320 327 331 337 326 279 248 239 238 239 243 249 255 262 268 274 279 283 286 289 291 295 299 302 304 305 304 302 300 299 297 297 297 298 297 296 294 292 290 288 286 284 284 283 284 285 286 286 287 288 287 286 283 278
344 348 352 358 2 6 14 23 28 29 27 23 18 17 22 26 31 37 42 46 48 47 44 39 35 31 26 19 14 13 13 19 29 38 52 129 195 213 222 228 236 245 252 260 267 273 278 283 287 290 293 297 302 305 308 308 308 307 305 303 302 301 301 301 300 298 296 294 292 290 288 286 285 284 283 283 284 285 286 287 287 286 286 284 280
344 348 354 1 7 11 18 29 32 31 30 27 23 20 22 26 31 36 39 42 45 44 41 39 35 34 33 31 29 31 37 45 66 107 153 181 198 212 227 238 247 254 261 267 273 279 284 288 292 296 301 305 309 311 312 312 312 310 308 306 305 304 303 302 300 297 295 293 291 290 288 287 286 285 284 284 285 285 286 287 287 286 285 284 281
346 349 356 5 11 12 19 29 34 32 30 29 27 24 23 24 26 29 33 36 37 38 39 39 39 40 42 44 48 61 84 115 144 163 178 191 207 225 241 252 260 266 272 277 283 288 292 296 300 305 309 312 314 315 315 315 314 312 311 310 308 307 305 302 299 297 295 293 292 290 289 288 287 286 286 286 286 286 287 287 287 287 285 284 282
349 352 360 12 18 18 21 28 33 33 32 31 29 27 25 22 20 22 27 34 40 45 49 52 54 57 63 74 92 116 139 155 170 185 199 213 228 245 257 266 273 277 283 289 293 297 300 304 308 312 314 316 317 317 317 316 315 315 314 312 310 307 304 302 300 298 297 296 294 293 292 291 290 289 288 287 287 287 287 287 287 287 286 285 283
355 356 5 19 28 27 28 34 38 38 39 38 36 35 32 26 21 22 31 46 60 68 72 73 76 82 91 106 123 140 156 172 189 209 228 242 253 262 270 277 282 287 292 297 300 303 307 311 314 317 318 318 318 318 318 317 317 316 315 313 309 307 304 303 302 301 300 299 297 296 295 293 292 291 290 290 289 288 288 287 287 286 286 285 284
1 3 12 26 35 35 36 42 46 47 48 48 46 47 48 43 36 36 48 68 82 88 89 89 92 101 112 125 137 152 168 190 213 234 250 263 271 278 283 287 291 295 299 303 307 310 314 316 317 318 318 318 318 319 319 319 318 317 315 312 310 308 307 306 305 304 303 302 300 299 297 296 295 294 293 292 291 290 290 289 288 287 286 285 284
9 13 21 33 41 42 43 48 52 54 56 57 56 57 60 59 55 58 72 88 97 99 100 101 106 115 124 133 147 167 186 214 242 261 272 279 284 287 291 296 300 303 307 310 313 315 317 317 318 318 318 319 319 320 320 320 318 317 315 314 313 312 311 311 309 308 307 305 303 301 299 297 296 295 294 293 293 292 291 291 290 289 287 286 284